EW8234 Brisbane AU current weather conditions

sailwx.info

Wind from 234 at 0 knots gusting 3

Air temperature 23.9° C
Dewpoint 22.9° C

Last reported at 2020-Jan-24 17:45 UTC.
Time now 2020-Jan-26 09:15 UTC

Location: S 27°31' E 152°52'.
View on Google Maps.

See reports from other nearby stations

  
Tides and Currents Weather Stations Pressure Air Temp Water Temp Dewpoint Dewpoint Depression Visibility Wind Speed Wind Dir Waves Ship Positions
date/time (UTC)wind fromknots sea level pressurealtimeterstation pressurevisibilityair tempwater tempwave heightnotes
2020-Jan-24 17:45 234 0 gusting 3 23.9
2020-Jan-24 17:30 104 24.4
2020-Jan-24 17:17 032 0 gusting 2 24.4
2020-Jan-24 17:02 024 24.4
2020-Jan-24 17:00 035 24.4
2020-Jan-24 16:46 034 24.4
2020-Jan-24 16:31 039 24.4
2020-Jan-24 16:17 032 1 gusting 2 25.0
2020-Jan-24 16:00 026 0 gusting 4 25.0
2020-Jan-24 15:45 325 25.0
2020-Jan-24 15:30 034 1 gusting 4 25.0
2020-Jan-24 15:01 005 0 gusting 3 25.0
2020-Jan-24 14:48 031 0 gusting 2 25.0
2020-Jan-24 14:30 059 25.0
2020-Jan-24 14:16 034 1 gusting 4 25.0
2020-Jan-24 14:02 043 1 gusting 4 25.0
2020-Jan-24 13:47 057 1 gusting 3 25.0
2020-Jan-24 13:33 355 0 gusting 1 25.0
2020-Jan-24 13:16 036 0 gusting 3 25.0
2020-Jan-24 13:01 044 1 gusting 3 25.6
2020-Jan-24 12:47 360 0 gusting 5 25.6
2020-Jan-24 12:32 026 2 gusting 5 25.6
2020-Jan-24 12:18 044 1 gusting 7 25.6
2020-Jan-24 12:02 055 3 gusting 6 25.6
2020-Jan-24 11:46 051 4 gusting 10 25.6
2020-Jan-24 11:31 061 3 gusting 6 25.6
2020-Jan-24 11:16 016 2 gusting 5 26.1
2020-Jan-24 11:00 039 2 gusting 9 26.1
2020-Jan-24 10:45 052 4 gusting 8 26.1
2020-Jan-24 10:30 062 2 gusting 8 26.1
2020-Jan-24 10:16 319 2 gusting 8 26.1
2020-Jan-24 10:00 019 2 gusting 6 26.7
2020-Jan-24 09:45 072 3 gusting 8 26.7
2020-Jan-24 09:15 012 0 gusting 4 27.2
2020-Jan-24 09:02 076 1 gusting 4 27.2